Location: Kmicica-DOM
(53.1202°N, 23.2052°E)
Time: 04:16:34
(UTC+02:00)

USA 276 - Pass Details

Date: 18 August 2022
Orbit: 366 x 369 km, 50.0° (Epoch: 12 July)

Event Time Altitude Azimuth Distance (km) Brightness Sun altitude
Exits shadow 03:08:17 40° 183° (S) 550 2.4 -15.7°
Maximum altitude 03:08:29 41° 171° (S) 543 2.5 -15.7°
Drops below altitude 10° 03:11:21 10° 99° (E) 1,348 5.2 -15.4°
Sets 03:13:26 0° 92° (E) 2,195 6.5 -15.2°
